STARLINK-36656, 67841

Orbit data source: Space-Track

STARLINK-36656, 67841 is a payload satellite owned by SpaceX/Seattle (US) in LEO that was launched on Mon, 16 Feb 2026 UTC via an FALCON 9 launch vehicle from the Air Force Eastern Test Range (AFETR). Payload-class satellites include a variety of spacecraft equipped with specific instruments for various scientific and technological missions. These include communications satellites like Starlink; space stations such as the ISS; scientific satellites like the Hubble; Earth observation satellites from companies like Planet Labs, Umbra, and HawkEye 360; GPS; miniature CubeSats for education and research; and military/defense satellites.

Loading next visibility...
Identifier
67841, 2026-033W
Orbit
LEO
Country
Flag of USUS
Related business
Manufacturer
SpaceX/Seattle
Mission
Operational Commercial Communications
Bus & Motor
STARLINK V2MO, Unknown motor
Mass
575 kg wet, ~530 kg dry
Launch date (UTC)
2026-02-16 (4 months ago)
Launch vehicle
FALCON 9
Launch site
Air Force Eastern Test Range (AFETR)
Object type
Payload
Rocket body
Debris
Shape & HBR
Box + 2 Pan, 17.7 m
Radar Cross Section
36.964 m², Large (>1 m²)

Expand to show TLE details & history
Last TLE update: 12 hours ago

TLE from 12 hours ago
0 STARLINK-36656
1 67841U 26033W   26171.33940973 -.00001711  00000-0 -52687-4 0  9999
2 67841  43.0007  47.2787 0001224 268.4454  91.6257 15.27578535 20379
Epoch: 2026-06-20T08:08Z
TLE epoch observation values (Epoch: 2026-06-20T08:08:45.000Z)
Latitude
-0.00006°
Longitude
16.53569°
Altitude
482.853 km
Speed
7.626 km/s
True Right ascension
03h 09m 06s
True Declination
0° 00' 00"
Sunlit
Object was in daylight at epoch
Visualization orbit readout
Latitude
Unknown
Longitude
Unknown
Altitude
Unknown
Speed
Unknown
Apparent Right ascension
Unknown
Apparent Declination
Unknown
Sunlit
N/A
Visualization observer readout
Local Sidereal Time
07:22:54
Azimuth
Unknown
Elevation
Unknown
Doppler factor
Unknown
Orbital elements
Apogee altitude
485.839 km
Perigee altitude
484.158 km
Semi-major axis
6,863.136 km
Eccentricity
0.00012
Inclination
43.0007°
RAAN
47.2787°
Arg. of periapsis
268.4454°
True anomaly
91.63972°
Mean anomaly
91.6257°
Eccentric anomaly
91.63271°
Mean motion
3.81733 °/min
Orbital period
94.31 mins
BSTAR
-0.000052687
Loading maneuver chart data...
Computing Atmospheric mass density...
Loading historical data...
Loading historical data...
Loading historical data...
Loading historical data...
Loading historical data...
Loading historical data...
Loading historical data...

Documentation

Showing up to 5 results
|